Portada
METAR-TAF:

METAR-TAF

Aeroports :

Gwalior, Índia

latitud: 26-17-36N, longitud: 78-13-40E, altitud: 188 m

Observació

L'informe es va fer fa 49 minuts, a les 18:00 UTC
Vent 3 kt del Sud
Temperatura 25°C
Humitat 83%
Pressió 1009 hPa
Visibilitat: 4000 m
Núvols disperses a una alçada de 2000 ft
Cel ennuvolat a una alçada de 10000 ft
calitja

METAR: VIGR 231800Z 18003KT 4000 HZ SCT020 BKN100 25/22 Q1009

Hora: 00:19 (18:49 UTC)


TAF: manca

Observacions i pronòstics meteorològics de més de 4000 aeroports (METAR i TAF).

Les estacions disponibles són els punts grocs i vermells al mapa.

Posi el ratolí al punt desitjat per veure el nom de l'estació.

Feu clic per veure les observacions i els pronòstics meteorològics.

Per canviar el mapa: feu clic els botons verds amb una creu de color negre per apropar; al botó verd amb un guió per allunyar la imatge; o en les fletxes verdes per a mapes adjacents.


METAR-TAF: